Nome, AK

7:19 PM AKDT on June 27, 2017 (GMT -0800)
Nome

Weather History for PAOM - January, 2012

Change the Weather History Date:

Tuesday, January 31, 2012

  Actual Average Record
Temperature  
Mean Temperature -32 °F 5 °F  
Max Temperature -25 °F 13 °F 38 °F (1994)
Min Temperature -38 °F -3 °F -40 °F (1993)
Degree Days  
Heating Degree Days 97 60  
Month to date heating degree days 2533 1853  
Since 1 July heating degree days 8798 7668  
Cooling Degree Days 0 0  
Month to date cooling degree days 0 0  
Year to date cooling degree days 0 0  
Moisture  
Dew Point -37 °F    
Average Humidity 0    
Maximum Humidity 0    
Minimum Humidity 0    
Precipitation  
Precipitation 0.00 in 0.03 in 0.32 in (1936)
Month to date precipitation 0.16 0.94  
Year to date precipitation 0.16 0.94  
Snow  
Snow 0.00 in 0.40 in 4.10 in (1973)
Month to date snowfall 3.4 12.7  
Since 1 July snowfall 47.6 44.5  
Snow Depth 18.00 in    
Sea Level Pressure  
Sea Level Pressure 29.59 in    
Wind  
Wind Speed 1 mph (NNE)    
Max Wind Speed 6 mph    
Max Gust Speed 7 mph    
Visibility 8 miles    
Events Snow    
T = Trace of Precipitation, MM = Missing Value Source: NWS Daily Summary

Daily Weather History Graph

Daily Weather History Graph

Search for Another Location

Airport or City:

Trip Planner

Search our weather history database for the weather conditions in past years. The results will help you decide how hot, cold, wet, or windy it might be!

Date:

Astronomy

Jan. 31, 2012 Rise Set
Actual Time 10:48 AM AKST 5:42 PM AKST
Civil Twilight 9:50 AM AKST 6:41 PM AKST
Nautical Twilight 8:49 AM AKST 7:41 PM AKST
Astronomical Twilight 7:53 AM AKST 8:38 PM AKST
Moon 11:13 AM AKST (1/31) 5:10 AM AKST (1/31)
Length of Visible Light 8h 51m
Length of Day
6h 53m
First Quarter, 57% of the Moon is Illuminated
Jan 31
First Quarter
Feb 7
Full
Feb 14
Last Quarter
Feb 21
New
Feb 29
First Quarter

Hourly Weather History & Observations

Time (AKST) Temp. Windchill Dew Point Humidity Pressure Visibility Wind Dir Wind Speed Gust Speed Precip Events Conditions
12:53 AM -35.0 °F - -40.0 °F 76% 29.54 in 10.0 mi Calm Calm - N/A   Clear
1:53 AM -34.1 °F -46.8 °F -36.0 °F 90% 29.55 in 10.0 mi NNE 3.5 mph - N/A   Clear
2:22 AM -34.6 °F - -38.2 °F 82% 29.54 in 10.0 mi Calm Calm - N/A   Partly Cloudy
2:44 AM -34.6 °F - -38.2 °F 82% 29.54 in 6.0 mi Calm Calm - N/A   Mostly Cloudy
2:53 AM -35.0 °F -47.8 °F -38.9 °F 81% 29.54 in 6.0 mi North 3.5 mph - N/A   Mostly Cloudy
3:24 AM -34.6 °F - -41.8 °F 68% 29.54 in 6.0 mi Calm Calm - N/A   Scattered Clouds
3:53 AM -35.0 °F - -40.0 °F 76% 29.55 in 8.0 mi Calm Calm - N/A   Clear
4:53 AM -36.0 °F -49.0 °F -40.9 °F 77% 29.55 in 10.0 mi NNE 3.5 mph - N/A   Clear
5:53 AM -35.0 °F - -40.0 °F 76% 29.56 in 10.0 mi Calm Calm - N/A   Clear
6:53 AM -35.0 °F - -40.0 °F 76% 29.56 in 10.0 mi Calm Calm - N/A   Clear
7:53 AM -35.0 °F - - N/A% 29.57 in 10.0 mi Calm Calm - N/A   Clear
8:53 AM -35.0 °F - - N/A% 29.57 in 10.0 mi Calm Calm - N/A   Clear
9:53 AM -34.1 °F - - N/A% 29.58 in 10.0 mi Calm Calm - N/A   Clear
10:53 AM -33.0 °F - - N/A% 29.59 in 10.0 mi Calm Calm - N/A   Partly Cloudy
11:53 AM -31.0 °F -48.4 °F - N/A% 29.59 in 9.0 mi North 5.8 mph - N/A   Scattered Clouds
12:53 PM -29.0 °F -41.0 °F -35.0 °F 73% 29.60 in 8.0 mi North 3.5 mph - N/A   Scattered Clouds
1:53 PM -27.9 °F - -33.0 °F 77% 29.60 in 8.0 mi Calm Calm - 0.00 in Snow Light Snow
2:53 PM -26.0 °F - -32.1 °F 73% 29.60 in 9.0 mi Calm Calm - 0.00 in   Scattered Clouds
3:20 PM -27.4 °F - -34.6 °F 69% 29.60 in 1.8 mi Calm Calm - N/A   Haze
3:27 PM -29.2 °F - -34.6 °F 75% 29.60 in 5.0 mi Calm Calm - N/A   Clear
3:53 PM -27.0 °F - -33.0 °F 73% 29.60 in 5.0 mi Calm Calm - N/A   Partly Cloudy
4:00 PM -29.2 °F - -34.6 °F 75% 29.60 in 4.0 mi Calm Calm - N/A   Mostly Cloudy
4:13 PM -29.2 °F - - N/A% 29.60 in 10.0 mi Calm Calm - N/A   Partly Cloudy
4:53 PM -31.0 °F -43.3 °F - N/A% 29.60 in 10.0 mi North 3.5 mph - N/A   Partly Cloudy
5:53 PM -32.1 °F - - N/A% 29.61 in 10.0 mi Calm Calm - N/A   Partly Cloudy
6:53 PM -33.0 °F - - N/A% 29.62 in 5.0 mi Calm Calm - N/A   Partly Cloudy
6:55 PM -32.8 °F - - N/A% 29.61 in 1.8 mi Calm Calm - N/A   Clear
6:59 PM -34.6 °F - - N/A% 29.61 in 5.0 mi Calm Calm - N/A   Clear
7:53 PM -35.0 °F - - N/A% 29.62 in 10.0 mi Calm Calm - N/A   Clear
8:53 PM -34.1 °F - - N/A% 29.62 in 9.0 mi Calm Calm - N/A   Partly Cloudy
9:53 PM -36.0 °F - - N/A% 29.63 in 9.0 mi Calm Calm - N/A   Partly Cloudy
10:48 PM -36.4 °F - - N/A% 29.63 in 9.0 mi Calm Calm - N/A   Partly Cloudy
10:53 PM -36.9 °F - - N/A% 29.64 in 10.0 mi Calm Calm - N/A   Partly Cloudy
11:53 PM -36.0 °F - -40.0 °F 81% 29.64 in 10.0 mi Calm Calm - N/A   Partly Cloudy